Flag for Lebanon Weather past 2 weeks in Sidon, Lebanon

73 °F

Passing clouds.

Feels Like: 74 °F
Forecast: 80 / 84 °F
Wind: 3 mph from North

Location: Beirut Airport

Current Time: Oct 8, 2015 at 12:14:55 AM

Latest Report: Oct 7, 2015 at 11:00 PM

Visibility: 5 mi

Pressure: 29.86 "Hg

Humidity: 78%

Dew point: 66 °F

Location of SidonLocation

Historic Weather in Sidon — Graph


Sidon temperature yesterday

Maximum temperature yesterday: 81 °F (at 11:00 AM)
Minimum temperature yesterday: 70 °F (at 4:00 AM)
Average temperature yesterday: 76 °F

Past Weeks' High & Low Weather Summary

High91 °F (Sep 23, 11:00 AM)88% (Oct 7, 5:00 AM)30.15 "Hg (Oct 7, 5:00 AM)
Low70 °F (Oct 7, 4:00 AM)28% (Sep 23, 8:00 AM)29.74 "Hg (Oct 7, 3:00 AM)
Average81 °F60%29.96 "Hg
* Reported Sep 22 11:00 PM — Oct 7 11:00 PM, Sidon, Weather by CustomWeather, © 2015

Note: Actual official high and low records may vary slightly from our data, if they occured in-between our weather recording intervals... More about our weather records


Sidon weather history for previous 24 hours

Time TempWeatherWind HumidityBarometerVisibility
11:00 PM
Wed, Oct 7
73 °FPassing clouds.3 mph78%29.86 "Hg5 mi
10:00 PM73 °FPassing clouds.7 mph83%29.86 "Hg5 mi
9:00 PM77 °FPassing clouds.7 mph61%29.83 "Hg5 mi
8:00 PM77 °FPassing clouds.12 mph57%29.83 "Hg5 mi
7:00 PM77 °FPartly sunny.10 mph54%29.83 "Hg5 mi
6:00 PM77 °FPartly sunny.18 mph69%29.80 "Hg5 mi
5:00 PM81 °FPartly sunny.15 mph62%29.80 "Hg5 mi
4:00 PM81 °FPartly sunny.16 mph54%29.80 "Hg4 mi
3:00 PM81 °FPartly sunny.17 mph54%29.80 "Hg4 mi
2:00 PM79 °FRain. Partly sunny.9 mph70%29.80 "Hg4 mi
1:00 PM79 °FDrizzle. Partly sunny.20 mph58%29.77 "Hg5 mi
12:00 PM79 °FRain. Partly sunny.16 mph61%29.77 "Hg5 mi
11:00 AM81 °FScattered clouds.17 mph58%29.77 "HgN/A
10:00 AM79 °FScattered clouds.15 mph61%29.77 "HgN/A
9:00 AM75 °FScattered clouds.12 mph69%29.77 "Hg5 mi
8:00 AM73 °FScattered clouds.8 mph78%29.77 "Hg5 mi
7:00 AM72 °FLight rain. Passing clouds.5 mph78%29.74 "Hg5 mi
6:00 AM72 °FLight rain. Passing clouds.7 mph78%29.74 "Hg5 mi
5:00 AM70 °FRain. Passing clouds.7 mph88%29.74 "Hg4 mi
4:00 AM70 °FRain. Passing clouds.14 mph78%29.74 "Hg4 mi
3:00 AM75 °FPassing clouds.10 mph65%29.74 "Hg5 mi
2:00 AM75 °FRain. Passing clouds.13 mph65%29.77 "Hg4 mi
1:00 AM77 °FPassing clouds.10 mph61%29.77 "Hg5 mi
12:00 AM77 °FPassing clouds.9 mph61%29.77 "Hg5 mi
Weather by CustomWeather, © 2015

See weather overviewHow to use our weather pages